CZ-2C DEB, 40291

Orbit data source: Space-Track

CZ-2C DEB, 40291 is space debris in SSO originally from a launch on Mon, 27 Oct 2014 UTC launched from the Jiuquan Satellite Launch Center, China (JSC). Debris objects in space refer to the collection of defunct objects orbiting the Earth. Examples of debris include non-operational satellites, rocket bodies, and fragments generated from explosions, collisions, or faulty payload assembly.

Loading next visibility...
Identifier
40291, 2014-066F
Orbit
SSO
Country
Flag of CNCN / PRC
Related business
Manufacturer
CALT
Mission
Spacecraft
Bus & Motor
Unknown
Mass
1 kg wet, 1 kg dry
Launch date (UTC)
2014-10-27 (11 years ago)
Launch vehicle
Unknown
Launch site
Jiuquan Satellite Launch Center, China (JSC)
Object type
Payload
Rocket body
Debris
Shape & HBR
Cone, 0.1 m
Radar Cross Section
0.025 m², Small (<0.1 m²)

Expand to show TLE details & history
Last TLE update: 1 day ago

TLE from 1 day ago
0 CZ-2C DEB
1 40291U 14066F   25259.98388620  .00003612  00000-0  11361-2 0  9996
2 40291  98.2572 253.8125 0157635  14.8965 345.6786 14.34123272566529
Epoch: 2025-09-16T23:36Z
TLE epoch observation values (Epoch: 2025-09-16T23:36:47.767Z)
Latitude
-0.0001°
Longitude
-96.55287°
Altitude
671.719 km
Speed
7.578 km/s
True Right ascension
16h 55m 15s
True Declination
0° 00' 00"
Sunlit
Object was in daylight at epoch
Visualization orbit readout
Latitude
Unknown
Longitude
Unknown
Altitude
Unknown
Speed
Unknown
Apparent Right ascension
Unknown
Apparent Declination
Unknown
Sunlit
N/A
Visualization observer readout
Local Sidereal Time
19:10:58
Azimuth
Unknown
Elevation
Unknown
Doppler factor
Unknown
Orbital elements
Apogee altitude
887.859 km
Perigee altitude
662.339 km
Semi-major axis
7,153.236 km
Eccentricity
0.01576
Inclination
98.2572°
RAAN
253.8125°
Arg. of periapsis
14.8965°
True anomaly
345.22309°
Mean anomaly
345.6786°
Eccentric anomaly
345.45172°
Mean motion
3.58748 °/min
Orbital period
100.35 mins
BSTAR
0.0011361
Loading maneuver chart data...
Computing Atmospheric mass density...
Loading historical data...
Loading historical data...
Loading historical data...
Loading historical data...
Loading historical data...
Loading historical data...
Loading historical data...
Other satellites on launch #66 in the year 2014 (2014-10-27 UTC)

Documentation

Showing up to 5 results
|